Weather History for Yakima, WA

Change the Weather History Date:

Friday, May 24, 2013

  Actual Average Record
Temperature  
Mean Temperature 55 °F 59 °F  
Max Temperature 65 °F 75 °F 94 °F (1999)
Min Temperature 45 °F 44 °F 30 °F (1989)
Degree Days  
Heating Degree Days 10 6  
Month to date heating degree days 132 221  
Since 1 July heating degree days 5088 5903  
Cooling Degree Days 0 1  
Month to date cooling degree days 51 13  
Year to date cooling degree days 52 14  
Growing Degree Days 5 (Base 50)    
Moisture  
Dew Point 42 °F    
Average Humidity 65    
Maximum Humidity 93    
Minimum Humidity 37    
Precipitation  
Precipitation 0.70 in 0.02 in 0.70 in (2013)
Month to date precipitation 2.14 0.43  
Year to date precipitation 3.44 3.52  
Snow  
Snow 0.00 in 0.00 in 0.00 in (2002)
Month to date snowfall 0.0 0.0  
Year to date snowfall 1.1 8.6  
Since 1 July snowfall 15.3 21.6  
Snow Depth 0.00 in    
Sea Level Pressure  
Sea Level Pressure 29.99 in    
Wind  
Wind Speed 3 mph (WNW)    
Max Wind Speed 13 mph    
Max Gust Speed 17 mph    
Visibility 9 miles    
Events Rain    
T = Trace of Precipitation, MM = Missing Value Source: NWS Daily Summary

Daily Weather History Graph

Daily Weather History Graph

Search for Another Location

Airport:

Trip Planner

Search our weather history database for the weather conditions in past years. The results will help you decide how hot, cold, wet, or windy it might be!

Date:

Astronomy

May. 24, 2013 Rise Set
Actual Time 5:18 AM PDT 8:40 PM PDT
Civil Twilight 4:41 AM PDT 9:17 PM PDT
Nautical Twilight 3:52 AM PDT 10:06 PM PDT
Astronomical Twilight 2:51 AM PDT 11:08 PM PDT
Moon 8:26 PM PDT (5/24) 4:58 AM PDT (5/24)
Length of Visible Light 16h 36m
Length of Day
15h 21m
Full, 100% of the Moon is Illuminated
May 24
Full
May 24
Full
May 31
Last Quarter
Jun 8
New
Jun 16
First Quarter

Hourly Weather History & Observations

Time (PDT) Temp. Dew Point Humidity Pressure Visibility Wind Dir Wind Speed Gust Speed Precip Events Conditions
12:53 AM 52.0 °F 39.9 °F 63% 29.98 in 10.0 mi Variable 3.5 mph - 0.00 in Rain Light Rain
1:53 AM 48.9 °F 43.0 °F 80% 29.97 in 10.0 mi Calm Calm - 0.00 in Rain Light Rain
2:53 AM 48.9 °F 44.1 °F 83% 29.97 in 10.0 mi Calm Calm - 0.01 in Rain Light Rain
3:53 AM 48.0 °F 45.0 °F 89% 29.96 in 6.0 mi WSW 4.6 mph - 0.04 in Rain Light Rain
4:53 AM 46.9 °F 43.0 °F 86% 29.96 in 6.0 mi NW 3.5 mph - 0.06 in Rain Light Rain
5:53 AM 46.0 °F 43.0 °F 89% 29.97 in 6.0 mi Calm Calm - 0.13 in Rain Rain
6:53 AM 46.0 °F 44.1 °F 93% 29.99 in 5.0 mi Calm Calm - 0.16 in Rain Rain
7:53 AM 46.9 °F 42.1 °F 83% 30.00 in 5.0 mi Calm Calm - 0.15 in Rain Rain
8:53 AM 46.9 °F 41.0 °F 80% 30.01 in 10.0 mi Calm Calm - 0.10 in Rain Light Rain
9:53 AM 48.0 °F 42.1 °F 80% 30.01 in 10.0 mi Calm Calm - 0.03 in Rain Light Rain
10:16 AM 48.2 °F 42.8 °F 82% 30.00 in 10.0 mi NNE 3.5 mph - 0.00 in Rain Light Rain
10:42 AM 48.2 °F 42.8 °F 82% 30.00 in 10.0 mi NW 3.5 mph - 0.02 in Rain Light Rain
10:53 AM 48.9 °F 43.0 °F 80% 30.00 in 10.0 mi Calm Calm - 0.02 in Rain Light Rain
11:14 AM 50.0 °F 42.8 °F 76% 30.00 in 10.0 mi Calm Calm - 0.00 in Rain Light Rain
11:39 AM 51.8 °F 42.8 °F 71% 30.00 in 10.0 mi Calm Calm - 0.00 in   Overcast
11:53 AM 52.0 °F 44.1 °F 74% 30.00 in 10.0 mi Calm Calm - 0.00 in   Overcast
12:53 PM 57.0 °F 44.1 °F 62% 29.99 in 10.0 mi West 8.1 mph - N/A   Overcast
1:53 PM 59.0 °F 42.1 °F 53% 29.99 in 10.0 mi NNW 6.9 mph - N/A   Overcast
2:53 PM 61.0 °F 42.1 °F 50% 29.99 in 10.0 mi NNW 8.1 mph - N/A   Mostly Cloudy
3:53 PM 63.0 °F 39.9 °F 43% 29.99 in 10.0 mi Variable 6.9 mph - N/A   Mostly Cloudy
4:53 PM 64.9 °F 37.9 °F 37% 29.98 in 10.0 mi Variable 3.5 mph - N/A   Mostly Cloudy
5:53 PM 62.1 °F 39.0 °F 43% 29.98 in 10.0 mi SW 3.5 mph - N/A   Scattered Clouds
6:53 PM 61.0 °F 41.0 °F 48% 29.99 in 10.0 mi SW 5.8 mph - N/A   Scattered Clouds
7:53 PM 60.1 °F 46.0 °F 60% 29.99 in 10.0 mi West 3.5 mph - N/A   Mostly Cloudy
8:53 PM 57.0 °F 46.0 °F 67% 30.00 in 10.0 mi West 3.5 mph - N/A   Overcast
9:53 PM 55.9 °F 39.9 °F 55% 30.01 in 10.0 mi NNW 6.9 mph - N/A   Partly Cloudy
10:53 PM 52.0 °F 39.9 °F 63% 30.01 in 10.0 mi NNW 5.8 mph - N/A   Clear
11:53 PM 48.0 °F 41.0 °F 77% 30.00 in 10.0 mi West 4.6 mph - N/A   Clear